CW3742 Weather Reports


time (UTC)temp
F
wind
direction
speed
knots
gust
knots
rain 1hr
in
rain 24hr
in
rain mn
in
humidity
%
barometer
mb
20260504050016 60 0 4.3 7.8 0.00 0.00 0.00 58 1006.0
20260504043016 60 0 7.8 8.7 0.00 0.00 0.00 58 1006.3
20260504040016 60 0 7.0 9.6 0.00 0.00 0.00 57 1006.6
20260504033016 61 0 7.0 9.6 0.00 0.00 0.00 56 1006.6
20260504030017 61 0 7.8 10.4 0.00 0.00 0.00 54 1006.6
20260504023016 62 0 7.8 11.3 0.00 0.00 0.00 53 1006.5
20260504020016 64 0 8.7 11.3 0.00 0.00 0.00 51 1006.4
20260504013016 65 0 7.8 10.4 0.00 0.00 0.00 49 1006.3
20260504010017 66 0 8.7 13.0 0.00 0.00 0.00 47 1006.3
20260504003037 69 0 9.6 13.9 0.00 0.00 0.00 43 1006.4
20260504000016 70 0 9.6 13.0 0.00 0.00 0.00 42 1006.3
20260503233017 71 0 12.2 18.2 0.00 0.00 0.00 40 1006.3
20260503230017 72 0 13.9 21.7 0.00 0.00 0.00 38 1006.4
20260503223017 72 0 15.6 22.6 0.00 0.00 0.00 38 1006.5
20260503220037 72 0 14.8 24.3 0.00 0.00 0.00 40 1006.5
20260503213016 72 0 15.6 23.5 0.00 0.00 0.00 41 1006.8
20260503210017 72 0 15.6 26.1 0.00 0.00 0.00 41 1007.0
20260503203017 69 0 16.5 24.3 0.00 0.00 0.00 47 1007.4
20260503200017 69 0 18.2 26.1 0.00 0.00 0.00 49 1007.8
20260503193017 68 0 16.5 27.8 0.00 0.00 0.00 46 1008.1
20260503190017 66 0 20.9 28.7 0.00 0.00 0.00 47 1008.0
20260503183017 68 0 20.9 28.7 0.00 0.00 0.00 46 1007.9
20260503180016 66 0 20.9 28.7 0.00 0.00 0.00 47 1008.4
20260503173017 66 0 20.0 31.3 0.00 0.00 0.00 46 1008.8